#timestamp,LO_Frequency,Hit,StdDev 
1657890015.6,286047001.2,N
1657890035.4,286046998.8,N
1657890055.3,286046998.4,N
1657890075.1,286047000.2,N
1657890076.0,286047000.2,N
1657890095.8,286047001.2,N
1657890115.7,286047002.7,N
1657890135.5,286047002.6,N
1657890155.3,286047002.6,N
1657890175.2,286047002.5,N
1657890195.0,286047000.0,N
1657890195.9,286047000.0,N
1657890215.8,286046999.9,N
1657890235.6,286046999.9,N
1657890255.4,286047001.3,N
1657890275.3,286047002.4,N
1657890295.1,286047002.4,N
1657890315.8,286047000.3,N
1657890335.7,286046998.1,N
1657890355.5,286046998.3,N
1657890375.3,286046998.6,N
1657890395.2,286047001.2,N
1657890415.0,286047000.8,N
1657890415.9,286047000.8,N
1657890435.8,286046998.5,N
1657890455.6,286047000.9,N
1657890475.4,286047001.0,N
1657890495.3,286047001.1,N
1657890515.1,286046998.1,N
1657890535.9,286047000.8,N
1657890555.7,286047001.2,N
1657890575.5,286046998.5,N
1657890595.4,286046999.3,N
1657890615.2,286046999.1,N
1657890635.0,286046996.8,N
1657890635.9,286046996.8,N
1657890655.8,286046998.7,N
1657890675.6,286046998.4,N
1657890695.4,286046999.0,N
1657890715.3,286046996.6,N
1657890735.1,286046996.6,N
1657890755.9,286046999.2,N
1657890775.7,286046999.5,N
1657890795.5,286046999.0,N
1657890815.4,286046999.4,N
1657890835.2,286046996.7,N
1657890855.0,286046996.6,N
1657890856.0,286046996.6,N
1657890875.8,286046996.7,N
1657890895.6,286046997.3,N
1657890915.5,286046997.0,N
1657890935.3,286046999.0,N
1657890955.1,286046998.4,N
1657890975.9,286046998.5,N
1657890995.7,286047001.0,N
1657891015.5,286046998.4,N
1657891035.4,286046996.9,N
1657891055.2,286046998.8,N
1657891075.1,286046996.5,N
1657891076.0,286046996.5,N
1657891095.8,286046998.6,N
1657891115.6,286046998.9,N
1657891135.5,286046999.5,N
1657891155.3,286046996.8,N
1657891175.1,286046996.7,N
1657891195.9,286046994.9,Y
1657891215.7,286046998.6,P
1657891235.6,286046998.5,P
1657891255.4,286046998.7,P
1657891275.2,286047000.9,Y
1657891295.1,286047002.1,P
1657891296.0,286047002.1,N
1657891315.8,286046999.7,N
1657891335.7,286047002.3,N
1657891355.5,286047002.5,N
1657891375.3,286046999.8,N
1657891395.2,286047001.5,N
1657891415.0,286047002.5,N
1657891415.9,286047002.5,N
1657891435.7,286047001.5,N
1657891455.6,286047001.5,N
1657891475.4,286047001.3,N
1657891495.3,286047003.3,N
1657891515.1,286047001.6,N
1657891516.0,286047001.6,N
1657891535.8,286047002.1,N
1657891555.7,286047002.1,N
1657891575.5,286047002.5,N
1657891595.3,286046999.7,N
1657891615.2,286047002.7,N
1657891635.0,286047002.1,N
1657891635.9,286047002.1,N
1657891655.8,286047002.2,N
1657891675.6,286047002.7,N
1657891695.4,286047000.8,N
1657891715.3,286047000.5,N
1657891735.1,286047002.9,N
1657891755.8,286047005.2,Y
1657891775.7,286047003.5,P
1657891795.5,286047001.9,N
1657891815.4,286047001.7,N
1657891835.2,286047002.0,N
1657891855.0,286047000.4,N
1657891855.9,286047000.4,N
1657891875.8,286047000.4,N
1657891895.6,286047000.9,N
1657891915.5,286047000.2,N
1657891935.3,286046998.7,N
1657891955.1,286047001.0,N
1657891975.9,286047000.5,N
1657891995.7,286047001.2,N
1657892015.6,286047001.1,N
1657892035.4,286046999.3,N
1657892055.2,286046996.8,N
1657892075.1,286046997.8,N
1657892076.0,286046997.8,N
1657892095.8,286046997.4,N
1657892115.6,286046997.1,N
1657892135.5,286046999.6,N
1657892155.3,286046996.8,N
1657892175.2,286046999.4,N
1657892195.9,286046999.3,N
1657892215.7,286046997.3,N
1657892235.6,286046994.9,N
1657892255.4,286046995.0,N
1657892275.2,286046997.8,N
1657892295.1,286046997.9,N
1657892296.0,286046997.9,N
1657892315.8,286046996.5,N
1657892335.7,286046996.6,N
1657892355.5,286046997.2,N
1657892375.3,286046997.4,N
1657892395.2,286046995.4,N
1657892415.0,286046996.2,N
1657892415.9,286046996.2,N
1657892435.8,286046995.7,N
1657892455.6,286046993.4,Y
1657892475.4,286046998.0,P
1657892495.3,286046997.2,P
1657892515.1,286046997.0,P
1657892535.9,286046996.8,Y
1657892555.7,286047002.3,P
1657892575.5,286047000.3,N
1657892595.4,286047000.5,N
1657892615.2,286047000.4,N
1657892635.0,286046998.9,N
1657892635.9,286046998.9,N
1657892655.8,286046998.2,N
1657892675.6,286046996.6,N
1657892695.5,286046997.0,N
1657892715.3,286046997.1,N
1657892735.1,286046999.0,N
1657892755.9,286046999.3,N
1657892775.7,286046998.8,N
1657892795.6,286047001.2,N
1657892815.4,286046999.0,N
1657892835.2,286046998.5,N
1657892855.1,286046999.8,N
1657892856.0,286046999.8,N
1657892875.8,286046999.8,N
1657892895.6,286047002.0,N
1657892915.5,286047000.8,N
1657892935.3,286046999.0,N
1657892955.2,286047000.0,N
1657892975.9,286047001.0,N
1657892995.7,286046997.0,N
1657893015.6,286046996.7,N
1657893035.4,286046998.4,N
1657893055.2,286046996.5,N
1657893075.1,286046997.7,N
1657893076.0,286046997.7,N
1657893095.8,286046998.4,N
1657893115.7,286046999.1,N
1657893135.5,286046999.4,N
1657893155.3,286046996.5,N
1657893175.2,286046997.7,N
1657893195.0,286046997.9,N
1657893195.9,286046997.9,N
1657893215.7,286046997.7,N
1657893235.6,286046997.6,N
1657893255.4,286046996.8,N
1657893275.3,286046997.5,N
1657893295.1,286046997.6,N
1657893296.0,286046997.6,N
1657893315.8,286046995.4,Y
1657893335.7,286046997.4,P
1657893355.5,286046999.4,N
1657893375.3,286046998.9,N
1657893395.2,286046997.1,Y
1657893415.0,286046998.5,P
1657893415.9,286046998.5,P
1657893435.8,286046998.8,P
1657893455.6,286047001.1,Y
1657893475.5,286047001.8,P
1657893495.3,286047003.8,N
1657893515.1,286047004.2,N
1657893535.9,286047005.6,N
1657893555.7,286047004.2,N
1657893575.5,286047003.2,N
1657893595.4,286047003.8,N
